FW0600 Weather Reports


Display with metric or nautical units.
time (UTC)temp
F
wind
direction
speed
MPH
gust
MPH
rain 1hr
in
rain 24hr
in
rain mn
in
humidity
%
barometer
mb
20260505074550 65 271 0.0 0.0 0.00 0.00 0.00 65 1018.4
20260505073051 66 271 0.0 0.0 0.00 0.00 0.00 63 1018.5
20260505071553 67 269 0.0 1.0 0.00 0.00 0.00 61 1018.3
20260505070049 68 306 0.0 1.0 0.00 0.00 0.00 59 1017.9
20260505064548 69 144 0.0 1.0 0.00 0.01 0.00 57 1017.7
20260505063048 69 145 0.0 3.0 0.00 0.01 0.00 56 1017.4
20260505061549 70 172 0.0 2.0 0.00 0.01 0.00 55 1017.7
20260505060047 72 242 0.0 3.0 0.00 0.01 0.00 53 1017.5
20260505054546 73 186 0.0 2.0 0.00 0.02 0.00 49 1017.3
20260505053046 75 323 0.0 2.0 0.00 0.02 0.00 49 1017.3
20260505051541 76 101 0.0 3.0 0.00 0.02 0.00 48 1017.2
20260505041536 76 88 1.0 4.0 0.00 0.06 0.00 45 1016.6
20260505040033 75 51 0.0 3.0 0.00 0.06 0.00 46 1016.6
20260505034534 75 123 0.0 4.0 0.00 0.11 0.00 47 1016.7
20260505033044 74 142 0.0 3.0 0.00 0.11 0.00 48 1016.8
20260505031527 73 157 1.0 7.0 0.00 0.11 0.00 49 1017.1
20260505030028 73 279 0.0 4.0 0.00 0.11 0.00 50 1017.2
20260505024521 72 106 2.0 6.0 0.00 0.17 0.00 50 1017.3
20260505023017 72 343 1.0 4.0 0.00 0.17 0.00 52 1017.3
20260505021514 71 89 1.0 5.0 0.00 0.17 0.00 52 1017.1
20260505020011 71 133 2.0 6.0 0.00 0.17 0.00 53 1017.6
20260505014509 70 36 2.0 5.0 0.00 0.21 0.00 54 1017.7
20260505013002 69 144 2.0 8.0 0.00 0.21 0.00 55 1017.7
20260505011602 69 121 1.0 7.0 0.00 0.21 0.00 56 1017.8
20260505004558 68 5 1.0 5.0 0.00 0.22 0.00 58 1018.3
20260505003050 68 40 1.0 6.0 0.00 0.22 0.00 58 1018.6
20260505001546 67 196 3.0 6.0 0.00 0.22 0.00 61 1018.6
20260505000046 66 149 2.0 6.0 0.00 0.22 0.00 64 1018.8
20260504234602 65 137 3.0 8.0 0.00 0.23 0.00 64 1018.7
20260504233035 65 133 3.0 8.0 0.00 0.23 0.00 65 1018.8
20260504231541 65 355 2.0 6.0 0.00 0.23 0.00 65 1018.9
20260504230026 65 77 1.0 5.0 0.00 0.23 0.00 65 1019.0
20260504224521 65 5 1.0 5.0 0.00 0.23 0.00 66 1018.8
20260504223017 64 223 0.0 8.0 0.00 0.23 0.00 68 1018.9
20260504221512 62 178 0.0 5.0 0.00 0.23 0.00 70 1018.9
20260504220008 62 200 0.0 2.0 0.00 0.23 0.00 74 1019.0
20260504214504 61 131 0.0 1.0 0.00 0.23 0.00 75 1018.6
20260504213104 59 130 0.0 2.0 0.00 0.23 0.00 77 1018.3
20260504211554 57 325 0.0 3.0 0.00 0.23 0.00 81 1017.9
20260504210057 56 134 1.0 3.0 0.00 0.23 0.00 84 1017.5
20260504204625 55 86 0.0 2.0 0.00 0.23 0.00 84 1017.4
20260504203049 55 155 0.0 1.0 0.00 0.23 0.00 84 1017.3
20260504201546 55 123 0.0 1.0 0.00 0.23 0.00 82 1017.3
20260504200043 56 116 0.0 0.0 0.00 0.23 0.00 78 1017.2
20260504194548 57 116 0.0 0.0 0.00 0.23 0.00 77 1017.0
20260504193036 58 116 0.0 0.0 0.00 0.23 0.00 77 1016.9
20260504191533 58 101 0.0 2.0 0.00 0.23 0.00 77 1016.9
20260504190036 59 100 0.0 2.0 0.00 0.23 0.00 76 1016.8
20260504184528 59 99 0.0 2.0 0.00 0.23 0.00 76 1016.3
20260504183029 59 119 0.0 2.0 0.00 0.23 0.00 75 1016.1
20260504181526 59 101 0.0 2.0 0.00 0.23 0.00 75 1016.1
20260504180024 60 158 0.0 2.0 0.00 0.23 0.00 75 1015.7
20260504174521 60 112 0.0 2.0 0.00 0.23 0.00 74 1015.7
20260504173020 61 145 0.0 4.0 0.00 0.23 0.00 74 1015.8
20260504171533 61 150 0.0 3.0 0.00 0.23 0.00 74 1015.8
20260504081547 67 308 0.0 1.0 0.00 0.23 0.23 86 1014.8